Weather History for Buffalo, WY

Change the Weather History Date:

Friday, May 10, 2013

  Actual Average Record
Temperature  
Mean Temperature 56 °F 51 °F  
Max Temperature 71 °F 62 °F 78 °F (2007)
Min Temperature 40 °F 40 °F 28 °F (2006)
Degree Days  
Heating Degree Days 9 15  
Month to date heating degree days 150 158  
Since 1 July heating degree days 6855 7002  
Cooling Degree Days 0 0  
Month to date cooling degree days 0 0  
Year to date cooling degree days 0 0  
Growing Degree Days 8 (Base 50)    
Moisture  
Dew Point 37 °F    
Average Humidity 48    
Maximum Humidity 71    
Minimum Humidity 25    
Precipitation  
Precipitation 0.06 in 0.09 in 2.21 in (2005)
Month to date precipitation 0.32 0.69  
Year to date precipitation 1.84 3.68  
Sea Level Pressure  
Sea Level Pressure 30.20 in    
Wind  
Wind Speed 11 mph (NW)    
Max Wind Speed 26 mph    
Max Gust Speed 35 mph    
Visibility 10 miles    
Events Rain , Thunderstorm    
T = Trace of Precipitation, MM = Missing Value Source: NWS Daily Summary

Daily Weather History Graph

Daily Weather History Graph

Search for Another Location

Airport:

Trip Planner

Search our weather history database for the weather conditions in past years. The results will help you decide how hot, cold, wet, or windy it might be!

Date:

Astronomy

May. 10, 2013 Rise Set
Actual Time 5:45 AM MDT 8:22 PM MDT
Civil Twilight 5:12 AM MDT 8:55 PM MDT
Nautical Twilight 4:30 AM MDT 9:37 PM MDT
Astronomical Twilight 3:43 AM MDT 10:24 PM MDT
Moon 6:11 AM MDT (5/10) 9:15 PM MDT (5/10)
Length of Visible Light 15h 43m
Length of Day
14h 36m
New Moon, 1% of the Moon is Illuminated
May 10
New Moon
May 17
First Quarter
May 24
Full
May 31
Last Quarter
Jun 8
New

Hourly Weather History & Observations

Time (MDT) Temp. Windchill Dew Point Humidity Pressure Visibility Wind Dir Wind Speed Gust Speed Precip Events Conditions
12:53 AM 48.0 °F - 39.9 °F 74% 30.08 in 10.0 mi WSW 9.2 mph - N/A   Clear
1:53 AM 48.0 °F - 37.9 °F 68% 30.08 in 10.0 mi West 6.9 mph - N/A   Clear
2:53 AM 46.9 °F - 36.0 °F 66% 30.08 in 10.0 mi West 9.2 mph - N/A   Clear
3:53 AM 46.0 °F 42.5 °F 34.0 °F 63% 30.09 in 10.0 mi WSW 6.9 mph - N/A   Clear
7:53 AM 59.0 °F - 36.0 °F 42% 30.09 in 10.0 mi NNW 8.1 mph - N/A   Clear
8:53 AM 63.0 °F - 37.9 °F 40% 30.12 in 10.0 mi North 9.2 mph - N/A   Clear
9:53 AM 64.0 °F - 37.9 °F 38% 30.13 in 10.0 mi North 13.8 mph 24.2 mph 0.01 in   Clear
11:53 AM 69.1 °F - 34.0 °F 27% 30.13 in 10.0 mi NNW 20.7 mph 26.5 mph N/A   Partly Cloudy
12:53 PM 71.1 °F - 33.1 °F 25% 30.14 in 10.0 mi North 17.3 mph 24.2 mph N/A   Partly Cloudy
1:16 PM 68.0 °F - 35.6 °F 30% 30.25 in 10.0 mi NW 16.1 mph - N/A   Scattered Clouds
1:53 PM 70.0 °F - 32.0 °F 25% 30.15 in 10.0 mi NNW 16.1 mph 21.9 mph N/A   Partly Cloudy
2:53 PM 66.9 °F - 34.0 °F 30% 30.18 in 10.0 mi West 17.3 mph 23.0 mph 0.00 in   Mostly Cloudy
3:53 PM 64.9 °F - 37.0 °F 36% 30.18 in 10.0 mi WNW 16.1 mph - N/A   Mostly Cloudy
4:53 PM 59.0 °F - 39.9 °F 49% 30.22 in 9.0 mi North 5.8 mph - 0.00 in Rain Light Rain
5:40 PM 57.2 °F - 41.0 °F 55% 30.31 in 6.0 mi NW 23.0 mph 31.1 mph 0.02 in Rain , Thunderstorm Light Thunderstorms and Rain
5:53 PM 55.9 °F - 45.0 °F 67% 30.25 in 6.0 mi WNW 9.2 mph - 0.05 in Rain , Thunderstorm Light Thunderstorms and Rain
6:17 PM 59.0 °F - 42.8 °F 55% 30.30 in 10.0 mi North 16.1 mph 28.8 mph 0.00 in Rain Light Rain
6:53 PM 57.9 °F - 42.1 °F 56% 30.24 in 10.0 mi North 15.0 mph 23.0 mph 0.00 in Rain Light Rain
7:53 PM 54.0 °F - 39.9 °F 59% 30.26 in 10.0 mi NNW 3.5 mph - 0.00 in   Mostly Cloudy
8:53 PM 51.1 °F - 37.0 °F 59% 30.28 in 10.0 mi NNW 9.2 mph - N/A   Clear
9:53 PM 48.0 °F - 34.0 °F 58% 30.32 in 10.0 mi NNW 6.9 mph - N/A   Clear
10:53 PM 46.9 °F - 30.9 °F 54% 30.33 in 10.0 mi NNW 8.1 mph - N/A   Clear
11:53 PM 42.1 °F 38.4 °F 32.0 °F 67% 30.34 in 10.0 mi West 5.8 mph - N/A   Clear